Weather in Aleksandrovsk

Russia / Perm Krai     59°09′46″N   57°35′04″E
temp.,
°C
wind,
m/s
gust,
m/s
humid.,
%
clouds,
%
prec.,
mm/h
press.,
hPa
HPBL,
m
21 january, fri
fri2123:00−8s51294100 0.6 1014689
02:00−8s51294100 0.7 1015670
05:00−8ssw51294100 1.3 1015628
08:00−8ssw51294100 0.6 1015581
11:00−9ssw41194100 1.1 1017524
14:00−8ssw4109199 0.3 1018515
17:00−9ssw399182 0.3 1020449
20:00−10ssw399495 0.0 1022354
22 january, sat
sat2223:00−13sse269791 0.0 1024130
02:00−14sse259791 0.0 1025107
05:00−15se2498100 0.0 102773
08:00−16se1198100 0.0 102716
11:00−15se129667 0.0 102853
14:00−10s239292 0.0 1028191
17:00−15se119854 0.0 10309
20:00−19ese119951 0.0 103210
23 january, sun
sun2323:00−19ese2110066 0.0 103211
02:00−19ese119972 0.0 103310
05:00−19ese119982 0.0 103410
08:00−18ese119931 0.0 103510
11:00−14ese119669 0.0 103632
14:00−7sse1287100 0.0 1036156
17:00−10se119691 0.0 103710
20:00−12se1196100 0.0 103913
24 january, mon
mon2423:00−9sse1293100 0.0 103943
02:00−9se1194100 0.0 104023
05:00−10sse1196100 0.0 104031
08:00−9s1497100 0.1 1039136
11:00−8s2596100 0.6 1039232
14:00−6ssw2494100 0.6 1039317
17:00−7ssw2596100 1.2 1037315
20:00−7sw2597100 0.9 1036297
25 january, tue
tue2523:00−9ssw1198100 1.6 103610
02:00−11wsw1198100 0.3 103513
05:00−11wsw1497100 0.8 1035158
08:00−15ssw1199100 0.2 103511
11:00−14s1196100 0.3 103555
14:00−11sw1293100 0.1 1034243
17:00−12s1198100 0.1 10349
20:00−15se1199100 0.0 103416